AAL1685 KOKC-KAUS

Flight info

Callsign AAL1685
Flight time N/A
Altitude 39000
Route MUDDE3 MOOSE BROBB/N0450F380 WINDU SEWZY6
Aircraft B738/M-SDE2E3FGHIRWXY/LB1

Departure

Time 2026-05-05 20:44
Airport OKC Will Rogers World Airport (KOKC)

Arrival

Time N/A
Airport Austin Bergstrom International Airport (KAUS)
Time Latitude Longitude Altitude Speed Heading
2026-05-05 19:57 35.39454 -97.59658 1298 ft 0 kts 19°
2026-05-05 20:17 35.39451 -97.59659 1270 ft 2 kts 20°
2026-05-05 20:18 35.39436 -97.59668 1298 ft 2 kts 41°
2026-05-05 20:18 35.39424 -97.59682 1297 ft 2 kts 47°
2026-05-05 20:18 35.39416 -97.59699 1297 ft 2 kts
2026-05-05 20:18 35.39399 -97.59701 1296 ft 2 kts 318°
2026-05-05 20:19 35.39393 -97.59689 1296 ft 1 kts 286°
2026-05-05 20:19 35.39393 -97.59688 1296 ft 0 kts 286°
2026-05-05 20:22 35.39393 -97.59689 1296 ft 1 kts 286°
2026-05-05 20:22 35.39400 -97.59719 1296 ft 8 kts 287°
2026-05-05 20:23 35.39405 -97.59809 1293 ft 7 kts 239°
2026-05-05 20:23 35.39358 -97.59829 1292 ft 10 kts 184°
2026-05-05 20:23 35.39266 -97.59838 1292 ft 16 kts 203°
2026-05-05 20:23 35.39216 -97.59973 1290 ft 22 kts 268°
2026-05-05 20:24 35.39219 -97.60179 1291 ft 26 kts 270°
2026-05-05 20:24 35.39195 -97.60360 1288 ft 13 kts 214°
2026-05-05 20:24 35.39101 -97.60361 1289 ft 17 kts 174°
2026-05-05 20:24 35.38954 -97.60352 1287 ft 25 kts 178°
2026-05-05 20:25 35.38786 -97.60341 1289 ft 26 kts 178°
2026-05-05 20:25 35.38577 -97.60335 1278 ft 34 kts 181°
2026-05-05 20:25 35.38313 -97.60337 1273 ft 41 kts 181°
2026-05-05 20:25 35.38042 -97.60335 1269 ft 23 kts 179°
2026-05-05 20:26 35.38005 -97.60335 1269 ft 1 kts 179°
2026-05-05 20:26 35.37979 -97.60337 1270 ft 6 kts 187°
2026-05-05 20:26 35.37929 -97.60378 1270 ft 12 kts 238°
2026-05-05 20:26 35.37918 -97.60437 1269 ft 0 kts 264°
2026-05-05 20:42 35.37915 -97.60482 1269 ft 9 kts 266°
2026-05-05 20:43 35.37937 -97.60563 1274 ft 7 kts 322°
2026-05-05 20:43 35.37965 -97.60571 1272 ft 5 kts 360°
2026-05-05 20:43 35.38295 -97.60573 1271 ft 90 kts 359°
2026-05-05 20:43 35.39159 -97.60567 1425 ft 145 kts
2026-05-05 20:44 35.40248 -97.60584 2211 ft 163 kts 359°
2026-05-05 20:44 35.41310 -97.60642 3601 ft 141 kts 355°
2026-05-05 20:44 35.42244 -97.60785 4526 ft 142 kts 352°
2026-05-05 20:44 35.43322 -97.60921 4831 ft 160 kts 352°
2026-05-05 20:45 35.46010 -97.61176 5073 ft 229 kts 353°
2026-05-05 20:45 35.47689 -97.61208 5012 ft 251 kts 10°
2026-05-05 20:45 35.49193 -97.60136 5018 ft 257 kts 47°
2026-05-05 20:46 35.49918 -97.58152 5010 ft 260 kts 84°
2026-05-05 20:46 35.49561 -97.56014 5012 ft 259 kts 122°
2026-05-05 20:46 35.48248 -97.54521 5027 ft 268 kts 153°
2026-05-05 20:46 35.46574 -97.53381 5440 ft 281 kts 155°
2026-05-05 20:47 35.44740 -97.52701 6302 ft 273 kts 183°
2026-05-05 20:47 35.42856 -97.52816 7147 ft 272 kts 189°
2026-05-05 20:47 35.40958 -97.53020 7931 ft 275 kts 190°
2026-05-05 20:47 35.39039 -97.53221 8773 ft 278 kts 191°
2026-05-05 20:48 35.37111 -97.53403 9656 ft 279 kts 191°
2026-05-05 20:48 35.35166 -97.53571 10422 ft 283 kts 192°
2026-05-05 20:48 35.33126 -97.53743 10663 ft 306 kts 191°
2026-05-05 20:48 35.30921 -97.53920 10877 ft 327 kts 191°
2026-05-05 20:49 35.28658 -97.54083 11490 ft 332 kts 191°
2026-05-05 20:49 35.26347 -97.54236 12316 ft 332 kts 192°
2026-05-05 20:49 35.24049 -97.54384 13180 ft 330 kts 193°
2026-05-05 20:49 35.21760 -97.54533 13942 ft 331 kts 194°
2026-05-05 20:50 35.19434 -97.54689 14513 ft 336 kts 193°
2026-05-05 20:50 35.17083 -97.54848 15091 ft 341 kts 193°
2026-05-05 20:50 35.14693 -97.55009 15669 ft 346 kts 193°
2026-05-05 20:50 35.12274 -97.55170 16264 ft 350 kts 193°
2026-05-05 20:51 35.09830 -97.55331 16871 ft 354 kts 193°
2026-05-05 20:51 35.07353 -97.55494 17454 ft 358 kts 193°
2026-05-05 20:51 35.04882 -97.55658 18040 ft 362 kts 193°
2026-05-05 20:51 35.02354 -97.55826 18547 ft 365 kts 193°
2026-05-05 20:52 34.99783 -97.55816 19074 ft 377 kts 185°
2026-05-05 20:52 34.97153 -97.55432 19602 ft 382 kts 183°
2026-05-05 20:52 34.94508 -97.55023 20118 ft 385 kts 184°
2026-05-05 20:52 34.91839 -97.54622 20615 ft 388 kts 184°
2026-05-05 20:53 34.89149 -97.54234 21107 ft 391 kts 185°
2026-05-05 20:53 34.86428 -97.53849 21588 ft 394 kts 185°
2026-05-05 20:53 34.83695 -97.53465 22054 ft 398 kts 185°
2026-05-05 20:53 34.80931 -97.53076 22514 ft 401 kts 185°
2026-05-05 20:54 34.78151 -97.52685 22956 ft 404 kts 185°
2026-05-05 20:54 34.75349 -97.52289 23392 ft 407 kts 185°
2026-05-05 20:54 34.72524 -97.51889 23765 ft 409 kts 185°
2026-05-05 20:54 34.69687 -97.51486 24127 ft 412 kts 185°
2026-05-05 20:55 34.66835 -97.51082 24500 ft 414 kts 185°
2026-05-05 20:55 34.63958 -97.50675 24874 ft 416 kts 185°
2026-05-05 20:55 34.61074 -97.50268 25240 ft 419 kts 185°
2026-05-05 20:55 34.58171 -97.49858 25586 ft 421 kts 185°
2026-05-05 20:56 34.55248 -97.49446 25908 ft 424 kts 185°
2026-05-05 20:56 34.52348 -97.49037 26221 ft 426 kts 185°
2026-05-05 20:56 34.49360 -97.48616 26563 ft 428 kts 185°
2026-05-05 20:56 34.46431 -97.48203 26867 ft 430 kts 186°
2026-05-05 20:57 34.43448 -97.47783 27167 ft 433 kts 186°
2026-05-05 20:57 34.40403 -97.47354 27480 ft 435 kts 186°
2026-05-05 20:57 34.37430 -97.46935 27772 ft 437 kts 186°
2026-05-05 20:57 34.34396 -97.46510 28074 ft 439 kts 186°
2026-05-05 20:58 34.31347 -97.46053 28364 ft 445 kts 183°
2026-05-05 20:58 34.28279 -97.45258 28625 ft 456 kts 179°
2026-05-05 20:58 34.25178 -97.44341 28896 ft 459 kts 179°
2026-05-05 20:58 34.22069 -97.43394 29167 ft 462 kts 179°
2026-05-05 20:59 34.18946 -97.42439 29431 ft 464 kts 179°
2026-05-05 20:59 34.15809 -97.41485 29688 ft 466 kts 179°
2026-05-05 20:59 34.12646 -97.40533 29909 ft 468 kts 179°
2026-05-05 20:59 34.09480 -97.39588 30131 ft 469 kts 179°
2026-05-05 21:00 34.06307 -97.38646 30367 ft 470 kts 179°
2026-05-05 21:00 34.03131 -97.37706 30652 ft 469 kts 179°
2026-05-05 21:00 33.99959 -97.36766 30989 ft 468 kts 179°
2026-05-05 21:00 33.96801 -97.35833 31316 ft 467 kts 179°
2026-05-05 21:01 33.93685 -97.34914 31599 ft 466 kts 180°
2026-05-05 21:01 33.90532 -97.33987 31893 ft 466 kts 180°
2026-05-05 21:01 33.87389 -97.33063 32213 ft 465 kts 180°
2026-05-05 21:01 33.84250 -97.32140 32543 ft 464 kts 180°
2026-05-05 21:02 33.81113 -97.31219 32819 ft 464 kts 180°
2026-05-05 21:02 33.77977 -97.30301 33069 ft 464 kts 180°
2026-05-05 21:02 33.74853 -97.29385 33380 ft 463 kts 180°
2026-05-05 21:02 33.71725 -97.28468 33691 ft 462 kts 180°
2026-05-05 21:03 33.68606 -97.27554 33964 ft 461 kts 180°
2026-05-05 21:03 33.65493 -97.26643 34206 ft 460 kts 180°
2026-05-05 21:03 33.62379 -97.25734 34442 ft 460 kts 180°
2026-05-05 21:03 33.59277 -97.24827 34688 ft 459 kts 180°
2026-05-05 21:04 33.56173 -97.23921 34940 ft 457 kts 180°
2026-05-05 21:04 33.53079 -97.23017 35188 ft 456 kts 180°
2026-05-05 21:04 33.49999 -97.22120 35402 ft 456 kts 180°
2026-05-05 21:04 33.46919 -97.21223 35600 ft 455 kts 180°
2026-05-05 21:05 33.43842 -97.20328 35827 ft 454 kts 180°
2026-05-05 21:05 33.40769 -97.19435 35992 ft 454 kts 180°
2026-05-05 21:05 33.37694 -97.18543 36199 ft 454 kts 180°
2026-05-05 21:05 33.34670 -97.17664 36434 ft 453 kts 181°
2026-05-05 21:06 33.31605 -97.16773 36665 ft 452 kts 181°
2026-05-05 21:06 33.28714 -97.15935 36844 ft 452 kts 181°
2026-05-05 21:06 33.25652 -97.15049 37022 ft 451 kts 181°
2026-05-05 21:06 33.22591 -97.14163 37203 ft 451 kts 181°
2026-05-05 21:07 33.19543 -97.13281 37380 ft 451 kts 181°
2026-05-05 21:07 33.16489 -97.12398 37572 ft 450 kts 181°
2026-05-05 21:07 33.13448 -97.11519 37741 ft 450 kts 181°
2026-05-05 21:07 33.10392 -97.10640 37736 ft 453 kts 181°
2026-05-05 21:08 33.04300 -97.08884 37717 ft 452 kts 180°
2026-05-05 21:08 32.98206 -97.07124 37730 ft 450 kts 180°
2026-05-05 21:09 32.92133 -97.05375 37722 ft 448 kts 180°
2026-05-05 21:09 32.86091 -97.03640 37724 ft 446 kts 180°
2026-05-05 21:10 32.80053 -97.01911 37727 ft 446 kts 180°
2026-05-05 21:10 32.74007 -97.00181 37768 ft 447 kts 180°
2026-05-05 21:11 32.67951 -96.98450 37767 ft 449 kts 180°
2026-05-05 21:11 32.61864 -96.96713 37750 ft 451 kts 180°
2026-05-05 21:12 32.55746 -96.94968 37762 ft 453 kts 180°
2026-05-05 21:12 32.49599 -96.93215 37773 ft 455 kts 180°
2026-05-05 21:13 32.43426 -96.91459 37765 ft 458 kts 180°
2026-05-05 21:13 32.37272 -96.90450 37770 ft 432 kts 194°
2026-05-05 21:14 32.34333 -96.90741 37754 ft 416 kts 203°
2026-05-05 21:14 32.31496 -96.91372 37772 ft 414 kts 204°
2026-05-05 21:14 32.25870 -96.92650 37742 ft 412 kts 204°
2026-05-05 21:15 32.23078 -96.93266 37469 ft 405 kts 204°
2026-05-05 21:15 32.20314 -96.93871 36851 ft 405 kts 204°
2026-05-05 21:15 32.17527 -96.94484 36083 ft 409 kts 204°
2026-05-05 21:15 32.14711 -96.95103 35340 ft 414 kts 203°
2026-05-05 21:16 32.11871 -96.95721 34757 ft 415 kts 203°
2026-05-05 21:16 32.09037 -96.96328 34382 ft 410 kts 203°
2026-05-05 21:16 32.06249 -96.96919 34045 ft 404 kts 203°
2026-05-05 21:16 32.03495 -96.97505 33650 ft 400 kts 203°
2026-05-05 21:17 32.00767 -96.98089 33181 ft 397 kts 203°
2026-05-05 21:17 31.98062 -96.98671 32683 ft 394 kts 203°
2026-05-05 21:17 31.95369 -96.99251 32192 ft 392 kts 203°
2026-05-05 21:17 31.92691 -96.99828 31728 ft 390 kts 203°
2026-05-05 21:18 31.90033 -97.00400 31284 ft 388 kts 203°
2026-05-05 21:18 31.87379 -97.00970 30851 ft 386 kts 202°
2026-05-05 21:18 31.84745 -97.01535 30430 ft 383 kts 202°
2026-05-05 21:18 31.82159 -97.02089 30011 ft 381 kts 202°
2026-05-05 21:19 31.79551 -97.02648 29536 ft 380 kts 202°
2026-05-05 21:19 31.76955 -97.03203 29072 ft 377 kts 202°
2026-05-05 21:19 31.74384 -97.03753 28602 ft 374 kts 202°
2026-05-05 21:19 31.71833 -97.04298 28141 ft 372 kts 202°
2026-05-05 21:20 31.69297 -97.04840 27687 ft 369 kts 202°
2026-05-05 21:20 31.66775 -97.05379 27254 ft 367 kts 202°
2026-05-05 21:20 31.64275 -97.05913 26793 ft 365 kts 202°
2026-05-05 21:20 31.61786 -97.06446 26350 ft 363 kts 202°
2026-05-05 21:21 31.59304 -97.06976 25922 ft 361 kts 202°
2026-05-05 21:21 31.56838 -97.07501 25500 ft 359 kts 201°
2026-05-05 21:21 31.54390 -97.08022 25099 ft 357 kts 201°
2026-05-05 21:21 31.51979 -97.08615 24687 ft 349 kts 206°
2026-05-05 21:22 31.49706 -97.09437 24286 ft 344 kts 209°
2026-05-05 21:22 31.47461 -97.10351 23886 ft 341 kts 210°
2026-05-05 21:22 31.45226 -97.11276 23500 ft 340 kts 210°
2026-05-05 21:22 31.42994 -97.12187 23057 ft 339 kts 209°
2026-05-05 21:23 31.40769 -97.13077 22622 ft 337 kts 208°
2026-05-05 21:23 31.38554 -97.13950 22223 ft 334 kts 208°
2026-05-05 21:23 31.36383 -97.14799 21825 ft 332 kts 207°
2026-05-05 21:23 31.34169 -97.15662 21414 ft 330 kts 207°
2026-05-05 21:24 31.32027 -97.16495 21008 ft 328 kts 207°
2026-05-05 21:24 31.29862 -97.17337 20614 ft 327 kts 207°
2026-05-05 21:24 31.27711 -97.18171 20240 ft 324 kts 206°
2026-05-05 21:24 31.26271 -97.18729 19983 ft 323 kts 206°
2026-05-05 21:25 31.23446 -97.19826 19473 ft 321 kts 206°
2026-05-05 21:25 31.21330 -97.20650 19100 ft 320 kts 206°
2026-05-05 21:25 31.19228 -97.21470 18736 ft 318 kts 205°
2026-05-05 21:25 31.17128 -97.22289 18379 ft 316 kts 205°
2026-05-05 21:26 31.15748 -97.22827 18144 ft 315 kts 205°
2026-05-05 21:26 31.13665 -97.23638 17736 ft 314 kts 205°
2026-05-05 21:26 31.11595 -97.24444 17321 ft 313 kts 205°
2026-05-05 21:26 31.09533 -97.25246 16926 ft 312 kts 205°
2026-05-05 21:27 31.07479 -97.26045 16535 ft 310 kts 205°
2026-05-05 21:27 31.05446 -97.26834 16407 ft 299 kts 205°
2026-05-05 21:27 31.03549 -97.27563 16432 ft 280 kts 205°
2026-05-05 21:27 31.01725 -97.28272 16025 ft 279 kts 206°
2026-05-05 21:28 30.99812 -97.29027 15100 ft 300 kts 205°
2026-05-05 21:28 30.97801 -97.29814 14577 ft 306 kts 205°
2026-05-05 21:28 30.95812 -97.30583 14250 ft 304 kts 205°
2026-05-05 21:28 30.93814 -97.31354 14003 ft 299 kts 205°
2026-05-05 21:29 30.91870 -97.32104 13854 ft 291 kts 205°
2026-05-05 21:29 30.89969 -97.32847 13629 ft 285 kts 205°
2026-05-05 21:29 30.88095 -97.33583 13261 ft 285 kts 205°
2026-05-05 21:29 30.86212 -97.34323 12886 ft 285 kts 204°